Time,TemperatureF,DewpointF,PressureIn,WindDirection,WindDirectionDegrees,WindSpeedMPH,WindSpeedGustMPH,Humidity,HourlyPrecipIn,Conditions,Clouds,dailyrainin,SoftwareType,DateUTC
2013-07-24 00:07:00,82.3,76.0,29.93,SE,146,13.0,23.0,80,0.00,,,0.00,weatherlink.com 1.10,2013-07-24 05:07:00,
2013-07-24 00:22:00,82.3,76.0,29.93,South,173,12.0,23.0,81,0.00,,,0.00,weatherlink.com 1.10,2013-07-24 05:22:00,
2013-07-24 00:37:00,82.3,76.0,29.93,SSE,159,21.0,23.0,80,0.00,,,0.00,weatherlink.com 1.10,2013-07-24 05:37:00,
2013-07-24 00:52:00,82.3,76.0,29.93,SSE,149,14.0,23.0,81,0.00,,,0.00,weatherlink.com 1.10,2013-07-24 05:52:00,
2013-07-24 01:07:00,82.2,76.0,29.93,SSE,167,15.0,25.0,81,0.00,,,0.00,weatherlink.com 1.10,2013-07-24 06:07:00,
2013-07-24 01:22:00,82.2,76.0,29.92,ESE,121,13.0,25.0,81,0.00,,,0.00,weatherlink.com 1.10,2013-07-24 06:22:00,
2013-07-24 01:37:00,82.1,76.0,29.92,SE,142,15.0,26.0,81,0.00,,,0.00,weatherlink.com 1.10,2013-07-24 06:37:00,
2013-07-24 01:52:00,82.0,76.0,29.91,SE,146,21.0,27.0,82,0.00,,,0.00,weatherlink.com 1.10,2013-07-24 06:52:00,
2013-07-24 02:07:00,82.1,77.0,29.91,SE,134,14.0,27.0,83,0.00,,,0.00,weatherlink.com 1.10,2013-07-24 07:07:00,
2013-07-24 02:22:00,82.0,76.0,29.91,ESE,123,16.0,27.0,82,0.00,,,0.00,weatherlink.com 1.10,2013-07-24 07:22:00,
2013-07-24 02:37:00,82.0,76.0,29.90,SSE,161,13.0,29.0,83,0.00,,,0.00,weatherlink.com 1.10,2013-07-24 07:37:00,
2013-07-24 02:52:00,81.9,77.0,29.90,South,176,20.0,27.0,84,0.00,,,0.00,weatherlink.com 1.10,2013-07-24 07:52:00,
2013-07-24 03:07:00,81.9,77.0,29.89,SSE,147,19.0,26.0,84,0.00,,,0.00,weatherlink.com 1.10,2013-07-24 08:07:00,
2013-07-24 03:22:00,81.9,76.0,29.89,SSE,155,16.0,27.0,83,0.00,,,0.00,weatherlink.com 1.10,2013-07-24 08:22:00,
2013-07-24 03:38:00,81.9,76.0,29.90,South,185,24.0,29.0,83,0.00,,,0.00,weatherlink.com 1.10,2013-07-24 08:38:00,
2013-07-24 03:53:00,81.9,77.0,29.89,South,171,16.0,26.0,84,0.00,,,0.00,weatherlink.com 1.10,2013-07-24 08:53:00,
2013-07-24 04:08:00,82.0,76.0,29.89,SSE,163,10.0,22.0,83,0.00,,,0.00,weatherlink.com 1.10,2013-07-24 09:08:00,
2013-07-24 04:23:00,81.9,76.0,29.89,South,174,12.0,23.0,83,0.00,,,0.00,weatherlink.com 1.10,2013-07-24 09:23:00,
2013-07-24 04:38:00,81.8,76.0,29.90,SSE,166,15.0,23.0,83,0.00,,,0.00,weatherlink.com 1.10,2013-07-24 09:38:00,
2013-07-24 04:53:00,81.8,76.0,29.90,South,174,24.0,28.0,82,0.00,,,0.00,weatherlink.com 1.10,2013-07-24 09:53:00,
2013-07-24 05:08:00,81.8,76.0,29.90,South,189,18.0,25.0,82,0.00,,,0.00,weatherlink.com 1.10,2013-07-24 10:08:00,
2013-07-24 05:23:00,81.8,76.0,29.90,South,181,11.0,22.0,82,0.00,,,0.00,weatherlink.com 1.10,2013-07-24 10:23:00,
2013-07-24 05:38:00,81.8,76.0,29.91,South,185,11.0,24.0,83,0.00,,,0.00,weatherlink.com 1.10,2013-07-24 10:38:00,
2013-07-24 05:53:00,81.6,76.0,29.91,SSW,194,9.0,23.0,84,0.00,,,0.00,weatherlink.com 1.10,2013-07-24 10:53:00,
2013-07-24 06:08:00,81.6,76.0,29.91,South,181,16.0,22.0,84,0.00,,,0.00,weatherlink.com 1.10,2013-07-24 11:08:00,
2013-07-24 06:23:00,81.4,76.0,29.92,South,173,11.0,22.0,83,0.00,,,0.00,weatherlink.com 1.10,2013-07-24 11:23:00,
2013-07-24 06:38:00,81.5,76.0,29.92,South,190,12.0,25.0,83,0.00,,,0.00,weatherlink.com 1.10,2013-07-24 11:38:00,
2013-07-24 06:53:00,81.5,76.0,29.92,South,171,20.0,23.0,83,0.00,,,0.00,weatherlink.com 1.10,2013-07-24 11:53:00,
2013-07-24 07:08:00,81.6,76.0,29.93,SSE,166,13.0,21.0,83,0.00,,,0.00,weatherlink.com 1.10,2013-07-24 12:08:00,
2013-07-24 07:23:00,81.7,76.0,29.92,South,185,12.0,24.0,83,0.00,,,0.00,weatherlink.com 1.10,2013-07-24 12:23:00,
2013-07-24 07:38:00,81.9,76.0,29.93,South,185,12.0,22.0,82,0.00,,,0.00,weatherlink.com 1.10,2013-07-24 12:38:00,
2013-07-24 07:53:00,82.1,76.0,29.93,South,180,14.0,23.0,82,0.00,,,0.00,weatherlink.com 1.10,2013-07-24 12:53:00,
2013-07-24 08:08:00,82.4,76.0,29.93,South,181,11.0,22.0,81,0.00,,,0.00,weatherlink.com 1.10,2013-07-24 13:08:00,
2013-07-24 08:23:00,82.8,76.0,29.94,South,175,14.0,22.0,81,0.00,,,0.00,weatherlink.com 1.10,2013-07-24 13:23:00,
2013-07-24 08:38:00,83.3,77.0,29.94,South,169,15.0,21.0,81,0.00,,,0.00,weatherlink.com 1.10,2013-07-24 13:38:00,
2013-07-24 08:53:00,83.7,77.0,29.93,SSE,166,12.0,21.0,79,0.00,,,0.00,weatherlink.com 1.10,2013-07-24 13:53:00,
2013-07-24 09:08:00,83.8,76.0,29.93,SSE,168,12.0,21.0,78,0.00,,,0.00,weatherlink.com 1.10,2013-07-24 14:08:00,
2013-07-24 09:23:00,83.9,76.0,29.94,SSE,158,15.0,23.0,77,0.00,,,0.00,weatherlink.com 1.10,2013-07-24 14:23:00,
2013-07-24 09:38:00,84.2,77.0,29.94,South,178,18.0,21.0,78,0.00,,,0.00,weatherlink.com 1.10,2013-07-24 14:38:00,
2013-07-24 09:53:00,84.5,76.0,29.94,SSE,163,15.0,21.0,76,0.00,,,0.00,weatherlink.com 1.10,2013-07-24 14:53:00,
2013-07-24 10:08:00,84.7,76.0,29.94,SSE,160,14.0,23.0,76,0.00,,,0.00,weatherlink.com 1.10,2013-07-24 15:08:00,
2013-07-24 10:23:00,85.0,77.0,29.94,South,185,18.0,22.0,76,0.00,,,0.00,weatherlink.com 1.10,2013-07-24 15:23:00,
2013-07-24 10:38:00,85.1,76.0,29.94,SSE,153,19.0,23.0,75,0.00,,,0.00,weatherlink.com 1.10,2013-07-24 15:38:00,
2013-07-24 10:53:00,85.4,76.0,29.95,SSE,163,16.0,22.0,74,0.00,,,0.00,weatherlink.com 1.10,2013-07-24 15:53:00,
2013-07-24 11:08:00,85.7,77.0,29.95,SE,146,13.0,21.0,74,0.00,,,0.00,weatherlink.com 1.10,2013-07-24 16:08:00,
2013-07-24 11:23:00,85.9,76.0,29.95,SSE,149,16.0,21.0,73,0.00,,,0.00,weatherlink.com 1.10,2013-07-24 16:23:00,
2013-07-24 11:38:00,85.7,77.0,29.94,SE,128,18.0,22.0,74,0.00,,,0.00,weatherlink.com 1.10,2013-07-24 16:38:00,
2013-07-24 11:53:00,86.4,77.0,29.94,South,176,9.0,20.0,74,0.00,,,0.00,weatherlink.com 1.10,2013-07-24 16:53:00,
2013-07-24 12:08:00,85.8,77.0,29.95,SE,126,14.0,20.0,74,0.00,,,0.00,weatherlink.com 1.10,2013-07-24 17:08:00,
2013-07-24 12:23:00,85.6,76.0,29.95,SE,131,12.0,21.0,74,0.00,,,0.00,weatherlink.com 1.10,2013-07-24 17:23:00,
2013-07-24 12:38:00,86.6,77.0,29.95,SSE,150,15.0,21.0,72,0.00,,,0.00,weatherlink.com 1.10,2013-07-24 17:38:00,
2013-07-24 12:53:00,86.3,76.0,29.95,SSE,155,13.0,20.0,71,0.00,,,0.00,weatherlink.com 1.10,2013-07-24 17:53:00,
2013-07-24 13:08:00,86.6,76.0,29.94,SSE,152,16.0,19.0,71,0.00,,,0.00,weatherlink.com 1.10,2013-07-24 18:08:00,
2013-07-24 13:23:00,86.9,76.0,29.95,SE,145,9.0,21.0,70,0.00,,,0.00,weatherlink.com 1.10,2013-07-24 18:23:00,
2013-07-24 13:38:00,86.5,77.0,29.94,SE,133,14.0,19.0,72,0.00,,,0.00,weatherlink.com 1.10,2013-07-24 18:38:00,
2013-07-24 13:53:00,87.2,76.0,29.93,SE,143,14.0,22.0,70,0.00,,,0.00,weatherlink.com 1.10,2013-07-24 18:53:00,
2013-07-24 14:08:00,88.0,76.0,29.93,SE,139,16.0,21.0,67,0.00,,,0.00,weatherlink.com 1.10,2013-07-24 19:08:00,
2013-07-24 14:23:00,86.7,75.0,29.92,ESE,114,19.0,21.0,69,0.00,,,0.00,weatherlink.com 1.10,2013-07-24 19:23:00,
2013-07-24 14:38:00,86.7,75.0,29.91,East,87,12.0,22.0,69,0.00,,,0.00,weatherlink.com 1.10,2013-07-24 19:38:00,
2013-07-24 14:53:00,87.8,76.0,29.91,ESE,123,14.0,20.0,69,0.00,,,0.00,weatherlink.com 1.10,2013-07-24 19:53:00,
2013-07-24 15:08:00,87.0,77.0,29.91,East,98,18.0,22.0,71,0.00,,,0.00,weatherlink.com 1.10,2013-07-24 20:08:00,
2013-07-24 15:23:00,86.5,77.0,29.90,ESE,123,13.0,21.0,72,0.00,,,0.00,weatherlink.com 1.10,2013-07-24 20:23:00,
2013-07-24 15:38:00,86.4,76.0,29.89,SSE,147,13.0,22.0,71,0.00,,,0.00,weatherlink.com 1.10,2013-07-24 20:38:00,
2013-07-24 15:53:00,86.4,76.0,29.89,ESE,105,13.0,24.0,72,0.00,,,0.00,weatherlink.com 1.10,2013-07-24 20:53:00,
2013-07-24 16:09:00,85.9,77.0,29.88,SE,140,20.0,25.0,74,0.00,,,0.00,weatherlink.com 1.10,2013-07-24 21:09:00,
2013-07-24 16:24:00,86.8,77.0,29.88,SSE,156,13.0,22.0,72,0.00,,,0.00,weatherlink.com 1.10,2013-07-24 21:24:00,
2013-07-24 16:39:00,86.6,77.0,29.87,ESE,107,11.0,21.0,72,0.00,,,0.00,weatherlink.com 1.10,2013-07-24 21:39:00,
2013-07-24 16:54:00,86.1,77.0,29.88,SE,144,15.0,21.0,74,0.00,,,0.00,weatherlink.com 1.10,2013-07-24 21:54:00,
2013-07-24 17:09:00,86.0,77.0,29.88,ESE,104,18.0,24.0,74,0.00,,,0.00,weatherlink.com 1.10,2013-07-24 22:09:00,
2013-07-24 17:24:00,85.7,77.0,29.88,ESE,106,14.0,22.0,74,0.00,,,0.00,weatherlink.com 1.10,2013-07-24 22:24:00,
2013-07-24 17:39:00,85.6,76.0,29.88,SE,132,12.0,23.0,73,0.00,,,0.00,weatherlink.com 1.10,2013-07-24 22:39:00,
2013-07-24 17:54:00,85.4,77.0,29.88,ESE,117,15.0,22.0,75,0.00,,,0.00,weatherlink.com 1.10,2013-07-24 22:54:00,
2013-07-24 18:09:00,84.9,76.0,29.87,SE,144,14.0,26.0,74,0.00,,,0.00,weatherlink.com 1.10,2013-07-24 23:09:00,
2013-07-24 18:24:00,85.6,76.0,29.87,SSE,159,19.0,25.0,74,0.00,,,0.00,weatherlink.com 1.10,2013-07-24 23:24:00,
2013-07-24 18:39:00,84.9,76.0,29.87,SE,129,20.0,23.0,74,0.00,,,0.00,weatherlink.com 1.10,2013-07-24 23:39:00,
2013-07-24 18:54:00,84.4,76.0,29.85,ESE,123,19.0,27.0,76,0.00,,,0.00,weatherlink.com 1.10,2013-07-24 23:54:00,
2013-07-24 19:09:00,84.0,76.0,29.85,SE,144,22.0,27.0,77,0.00,,,0.00,weatherlink.com 1.10,2013-07-25 00:09:00,
2013-07-24 19:24:00,83.7,76.0,29.85,SE,128,12.0,24.0,77,0.00,,,0.00,weatherlink.com 1.10,2013-07-25 00:24:00,
2013-07-24 19:39:00,83.1,76.0,29.86,SE,146,19.0,23.0,79,0.00,,,0.00,weatherlink.com 1.10,2013-07-25 00:39:00,
2013-07-24 19:54:00,82.8,76.0,29.86,SE,136,11.0,26.0,81,0.00,,,0.00,weatherlink.com 1.10,2013-07-25 00:54:00,
2013-07-24 20:09:00,82.7,76.0,29.86,SSE,158,16.0,25.0,80,0.00,,,0.00,weatherlink.com 1.10,2013-07-25 01:09:00,
2013-07-24 20:24:00,82.5,76.0,29.87,SSE,147,13.0,23.0,80,0.00,,,0.00,weatherlink.com 1.10,2013-07-25 01:24:00,
2013-07-24 20:39:00,82.4,76.0,29.87,South,177,10.0,21.0,80,0.00,,,0.00,weatherlink.com 1.10,2013-07-25 01:39:00,
2013-07-24 20:54:00,82.3,76.0,29.88,SSE,152,14.0,23.0,80,0.00,,,0.00,weatherlink.com 1.10,2013-07-25 01:54:00,
2013-07-24 21:09:00,82.3,76.0,29.88,SE,138,20.0,23.0,81,0.00,,,0.00,weatherlink.com 1.10,2013-07-25 02:09:00,
2013-07-24 21:24:00,82.3,76.0,29.88,South,169,14.0,23.0,81,0.00,,,0.00,weatherlink.com 1.10,2013-07-25 02:24:00,
2013-07-24 21:39:00,82.2,76.0,29.89,SSE,150,12.0,23.0,81,0.00,,,0.00,weatherlink.com 1.10,2013-07-25 02:39:00,
2013-07-24 21:54:00,82.1,76.0,29.89,SSE,162,14.0,23.0,81,0.00,,,0.00,weatherlink.com 1.10,2013-07-25 02:54:00,
2013-07-24 22:09:00,82.1,76.0,29.90,SSE,160,18.0,22.0,81,0.00,,,0.00,weatherlink.com 1.10,2013-07-25 03:09:00,
2013-07-24 22:24:00,82.1,76.0,29.90,SE,140,11.0,22.0,81,0.00,,,0.00,weatherlink.com 1.10,2013-07-25 03:24:00,
2013-07-24 22:39:00,82.0,75.0,29.91,SE,140,12.0,23.0,80,0.00,,,0.00,weatherlink.com 1.10,2013-07-25 03:39:00,
2013-07-24 22:54:00,82.1,75.0,29.91,SE,144,13.0,22.0,79,0.00,,,0.00,weatherlink.com 1.10,2013-07-25 03:54:00,
2013-07-24 23:09:00,82.0,75.0,29.92,South,169,19.0,23.0,79,0.00,,,0.00,weatherlink.com 1.10,2013-07-25 04:09:00,
2013-07-24 23:24:00,81.9,75.0,29.92,SSE,161,14.0,22.0,80,0.00,,,0.00,weatherlink.com 1.10,2013-07-25 04:24:00,
2013-07-24 23:39:00,81.9,75.0,29.93,SSE,165,16.0,21.0,80,0.00,,,0.00,weatherlink.com 1.10,2013-07-25 04:39:00,
2013-07-24 23:54:00,82.0,75.0,29.93,SE,136,11.0,21.0,79,0.00,,,0.00,weatherlink.com 1.10,2013-07-25 04:54:00,